| time (UTC) | temp C | wind direction | speed KPH | gust KPH | rain 1hr cm | rain 24hr cm | rain mn cm | humidity % | barometer mb |
| 20260904084030 | 11 | 354 | 9.7 | 14.5 | 0.00 | 0.20 | 0.20 | 92 | 999.8 |
| 20260904083532 | 11 | 310 | 6.4 | 14.5 | 0.00 | 0.20 | 0.20 | 92 | 999.9 |
| 20260904083053 | 11 | 347 | 8.0 | 14.5 | 0.00 | 0.20 | 0.20 | 92 | 999.7 |
| 20260904082533 | 11 | 327 | 6.4 | 16.1 | 0.00 | 0.20 | 0.20 | 91 | 999.7 |
| 20260904082032 | 11 | 328 | 6.4 | 16.1 | 0.00 | 0.20 | 0.20 | 91 | 999.7 |
| 20260904081551 | 11 | 341 | 9.7 | 16.1 | 0.00 | 0.20 | 0.20 | 91 | 999.7 |
| 20260904081033 | 11 | 329 | 6.4 | 9.7 | 0.00 | 0.20 | 0.20 | 91 | 999.7 |
| 20260904080533 | 11 | 359 | 4.8 | 12.9 | 0.00 | 0.20 | 0.20 | 91 | 999.7 |
| 20260904080053 | 11 | 349 | 6.4 | 12.9 | 0.00 | 0.20 | 0.20 | 91 | 999.8 |
| 20260904075534 | 11 | 323 | 6.4 | 12.9 | 0.00 | 0.20 | 0.20 | 91 | 999.7 |
| 20260904075032 | 11 | 20 | 6.4 | 11.3 | 0.00 | 0.20 | 0.20 | 91 | 999.8 |
| 20260904074546 | 11 | 316 | 4.8 | 11.3 | 0.00 | 0.20 | 0.20 | 92 | 999.8 |
| 20260904074033 | 11 | 358 | 4.8 | 9.7 | 0.00 | 0.20 | 0.20 | 92 | 999.8 |
| 20260904073533 | 11 | 4 | 6.4 | 11.3 | 0.00 | 0.20 | 0.20 | 92 | 999.8 |
| 20260904073056 | 11 | 328 | 6.4 | 11.3 | 0.00 | 0.20 | 0.20 | 92 | 999.8 |
| 20260904072534 | 11 | 38 | 6.4 | 11.3 | 0.00 | 0.20 | 0.20 | 92 | 999.9 |
| 20260904072033 | 11 | 16 | 3.2 | 8.0 | 0.00 | 0.20 | 0.20 | 92 | 1000.0 |
| 20260904071552 | 11 | 327 | 4.8 | 11.3 | 0.00 | 0.20 | 0.20 | 92 | 999.8 |
| 20260904071037 | 11 | 308 | 4.8 | 12.9 | 0.00 | 0.20 | 0.20 | 92 | 999.8 |
| 20260904070533 | 11 | 357 | 4.8 | 12.9 | 0.00 | 0.20 | 0.20 | 93 | 1000.0 |
| 20260904070049 | 10 | 328 | 6.4 | 12.9 | 0.00 | 0.20 | 0.20 | 93 | 1000.0 |
| 20260904065533 | 10 | 339 | 6.4 | 12.9 | 0.00 | 0.20 | 0.20 | 93 | 1000.0 |
| 20260904065032 | 10 | 338 | 6.4 | 9.7 | 0.00 | 0.20 | 0.20 | 93 | 1000.1 |
| 20260904064557 | 10 | 345 | 4.8 | 9.7 | 0.00 | 0.20 | 0.20 | 93 | 1000.1 |
| 20260904064033 | 10 | 326 | 6.4 | 11.3 | 0.00 | 0.20 | 0.20 | 93 | 1000.2 |
| 20260904063533 | 10 | 339 | 6.4 | 11.3 | 0.00 | 0.20 | 0.20 | 93 | 1000.2 |
| 20260904063052 | 10 | 341 | 6.4 | 11.3 | 0.00 | 0.20 | 0.20 | 93 | 1000.1 |
| 20260904062532 | 10 | 335 | 6.4 | 11.3 | 0.00 | 0.20 | 0.20 | 93 | 1000.2 |
| 20260904062034 | 10 | 10 | 6.4 | 11.3 | 0.00 | 0.20 | 0.20 | 93 | 1000.2 |
| 20260904061550 | 10 | 338 | 4.8 | 9.7 | 0.00 | 0.20 | 0.20 | 93 | 1000.4 |
| 20260904061033 | 10 | 343 | 4.8 | 9.7 | 0.00 | 0.20 | 0.20 | 93 | 1000.3 |
| 20260904060533 | 10 | 352 | 6.4 | 9.7 | 0.00 | 0.20 | 0.20 | 93 | 1000.4 |
| 20260904060047 | 10 | 22 | 6.4 | 9.7 | 0.00 | 0.20 | 0.20 | 93 | 1000.6 |
| 20260904055532 | 10 | 13 | 3.2 | 8.0 | 0.00 | 0.20 | 0.20 | 93 | 1000.7 |
| 20260904055032 | 10 | 349 | 4.8 | 8.0 | 0.00 | 0.20 | 0.20 | 93 | 1000.4 |
| 20260904054553 | 10 | 333 | 3.2 | 8.0 | 0.00 | 0.20 | 0.20 | 93 | 1000.6 |
| 20260904054032 | 10 | 331 | 3.2 | 9.7 | 0.00 | 0.20 | 0.20 | 93 | 1000.5 |
| 20260904053534 | 10 | 328 | 3.2 | 9.7 | 0.00 | 0.20 | 0.20 | 93 | 1000.5 |
| 20260904053051 | 10 | 38 | 4.8 | 11.3 | 0.00 | 0.20 | 0.20 | 93 | 1000.5 |
| 20260904052531 | 10 | 334 | 4.8 | 11.3 | 0.00 | 0.20 | 0.20 | 93 | 1000.5 |
| 20260904052034 | 10 | 360 | 4.8 | 8.0 | 0.00 | 0.20 | 0.20 | 93 | 1000.7 |
| 20260904051548 | 10 | 5 | 4.8 | 8.0 | 0.00 | 0.20 | 0.20 | 93 | 1000.6 |
| 20260904051030 | 10 | 354 | 4.8 | 8.0 | 0.00 | 0.20 | 0.20 | 93 | 1000.7 |
| 20260904050530 | 10 | 347 | 4.8 | 11.3 | 0.00 | 0.20 | 0.20 | 93 | 1000.7 |
| 20260904050056 | 10 | 347 | 6.4 | 11.3 | 0.00 | 0.20 | 0.20 | 93 | 1000.7 |
| 20260904045532 | 10 | 347 | 6.4 | 11.3 | 0.00 | 0.20 | 0.20 | 93 | 1000.7 |
| 20260904045032 | 10 | 345 | 6.4 | 11.3 | 0.00 | 0.20 | 0.20 | 93 | 1000.6 |
| 20260904044557 | 10 | 10 | 6.4 | 11.3 | 0.00 | 0.20 | 0.20 | 93 | 1000.8 |
| 20260904044034 | 10 | 336 | 4.8 | 11.3 | 0.00 | 0.20 | 0.20 | 93 | 1000.8 |
| 20260904043535 | 10 | 1 | 4.8 | 9.7 | 0.00 | 0.20 | 0.20 | 94 | 1000.8 |
| 20260904043046 | 10 | 9 | 4.8 | 8.0 | 0.00 | 0.20 | 0.20 | 93 | 1000.8 |
| 20260904042530 | 10 | 328 | 1.6 | 4.8 | 0.00 | 0.20 | 0.20 | 93 | 1000.8 |
| 20260904042035 | 10 | 13 | 1.6 | 9.7 | 0.00 | 0.20 | 0.20 | 93 | 1000.8 |
| 20260904041552 | 10 | 11 | 3.2 | 9.7 | 0.00 | 0.20 | 0.20 | 93 | 1000.7 |
| 20260904041033 | 10 | 358 | 4.8 | 9.7 | 0.00 | 0.20 | 0.20 | 94 | 1000.9 |
| 20260904040536 | 10 | 338 | 3.2 | 6.4 | 0.00 | 0.20 | 0.20 | 94 | 1000.9 |
| 20260904040057 | 10 | 338 | 3.2 | 6.4 | 0.00 | 0.20 | 0.20 | 94 | 1000.9 |
| 20260904035534 | 10 | 14 | 3.2 | 6.4 | 0.00 | 0.20 | 0.20 | 94 | 1000.9 |
| 20260904035032 | 10 | 336 | 1.6 | 4.8 | 0.00 | 0.20 | 0.20 | 93 | 1001.0 |
| 20260904034601 | 10 | 330 | 0.0 | 3.2 | 0.00 | 0.20 | 0.20 | 93 | 1000.9 |
| 20260904034033 | 10 | 0 | 0.0 | 1.6 | 0.00 | 0.20 | 0.20 | 93 | 1001.0 |
| 20260904033534 | 10 | 0 | 0.0 | 4.8 | 0.00 | 0.20 | 0.20 | 94 | 1001.1 |
| 20260904033055 | 10 | 0 | 0.0 | 4.8 | 0.00 | 0.20 | 0.20 | 93 | 1001.1 |
| 20260904032530 | 10 | 1 | 0.0 | 8.0 | 0.03 | 0.20 | 0.20 | 94 | 1001.2 |
| 20260904032030 | 10 | 343 | 1.6 | 8.0 | 0.03 | 0.20 | 0.20 | 94 | 1001.2 |
| 20260904031552 | 10 | 359 | 4.8 | 8.0 | 0.03 | 0.20 | 0.20 | 94 | 1001.2 |
| 20260904031033 | 10 | 335 | 4.8 | 8.0 | 0.03 | 0.20 | 0.20 | 94 | 1001.2 |
| 20260904030534 | 10 | 334 | 4.8 | 8.0 | 0.05 | 0.20 | 0.20 | 94 | 1001.3 |
| 20260904030050 | 10 | 342 | 3.2 | 6.4 | 0.05 | 0.20 | 0.20 | 94 | 1001.4 |
| 20260904025536 | 10 | 328 | 3.2 | 6.4 | 0.08 | 0.20 | 0.20 | 94 | 1001.4 |
| 20260904025035 | 10 | 350 | 3.2 | 6.4 | 0.05 | 0.18 | 0.18 | 94 | 1001.5 |
| 20260904024550 | 10 | 359 | 3.2 | 6.4 | 0.08 | 0.18 | 0.18 | 94 | 1001.6 |
| 20260904024033 | 10 | 29 | 3.2 | 6.4 | 0.08 | 0.18 | 0.18 | 94 | 1001.6 |
| 20260904023536 | 10 | 4 | 1.6 | 4.8 | 0.08 | 0.18 | 0.18 | 94 | 1001.6 |
| 20260904023055 | 10 | 333 | 3.2 | 4.8 | 0.08 | 0.18 | 0.18 | 94 | 1001.8 |
| 20260904022532 | 10 | 353 | 3.2 | 6.4 | 0.08 | 0.18 | 0.18 | 94 | 1001.8 |
| 20260904022034 | 10 | 345 | 3.2 | 6.4 | 0.08 | 0.18 | 0.18 | 94 | 1001.9 |
| 20260904021552 | 10 | 330 | 4.8 | 6.4 | 0.08 | 0.18 | 0.18 | 94 | 1001.7 |
| 20260904021031 | 10 | 322 | 3.2 | 6.4 | 0.10 | 0.18 | 0.18 | 94 | 1001.8 |
| 20260904020533 | 10 | 7 | 1.6 | 6.4 | 0.08 | 0.15 | 0.15 | 94 | 1001.8 |
| 20260904020052 | 10 | 6 | 0.0 | 1.6 | 0.08 | 0.15 | 0.15 | 94 | 1001.8 |
| 20260904015530 | 10 | 0 | 0.0 | 1.6 | 0.08 | 0.13 | 0.13 | 93 | 1001.9 |
| 20260904015032 | 10 | 0 | 0.0 | 1.6 | 0.08 | 0.13 | 0.13 | 93 | 1002.1 |
| 20260904014557 | 10 | 0 | 0.0 | 0.0 | 0.08 | 0.10 | 0.10 | 93 | 1001.9 |
| 20260904014031 | 10 | 0 | 0.0 | 1.6 | 0.08 | 0.10 | 0.10 | 93 | 1002.1 |
| 20260904013535 | 10 | 0 | 0.0 | 1.6 | 0.08 | 0.10 | 0.10 | 93 | 1002.1 |
| 20260904013052 | 10 | 0 | 0.0 | 1.6 | 0.05 | 0.08 | 0.08 | 93 | 1002.2 |
| 20260904012536 | 10 | 0 | 0.0 | 0.0 | 0.05 | 0.08 | 0.08 | 93 | 1002.1 |
| 20260904012034 | 10 | 0 | 0.0 | 0.0 | 0.08 | 0.08 | 0.08 | 93 | 1002.1 |
| 20260904011556 | 10 | 0 | 0.0 | 0.0 | 0.08 | 0.08 | 0.08 | 93 | 1002.3 |
| 20260904011035 | 10 | 0 | 0.0 | 0.0 | 0.05 | 0.05 | 0.05 | 92 | 1002.3 |
| 20260904010538 | 10 | 0 | 0.0 | 0.0 | 0.05 | 0.05 | 0.05 | 92 | 1002.4 |
| 20260904010049 | 10 | 0 | 0.0 | 0.0 | 0.05 | 0.05 | 0.05 | 92 | 1002.4 |
| 20260904005533 | 10 | 0 | 0.0 | 6.4 | 0.05 | 0.05 | 0.05 | 92 | 1002.3 |
| 20260904005035 | 10 | 0 | 0.0 | 6.4 | 0.03 | 0.03 | 0.03 | 92 | 1002.3 |
| 20260904004552 | 10 | 342 | 3.2 | 6.4 | 0.03 | 0.03 | 0.03 | 92 | 1002.2 |
| 20260904004034 | 10 | 0 | 0.0 | 8.0 | 0.03 | 0.03 | 0.03 | 92 | 1002.3 |
| 20260904003538 | 10 | 0 | 0.0 | 8.0 | 0.03 | 0.03 | 0.03 | 92 | 1002.4 |
| 20260904003047 | 10 | 0 | 3.2 | 8.0 | 0.03 | 0.03 | 0.03 | 92 | 1002.6 |
| 20260904002531 | 10 | 331 | 0.0 | 6.4 | 0.00 | 0.00 | 0.00 | 92 | 1002.5 |
| 20260904002031 | 10 | 0 | 0.0 | 4.8 | 0.00 | 0.00 | 0.00 | 92 | 1002.6 |
| 20260904001546 | 10 | 0 | 0.0 | 6.4 | 0.00 | 0.00 | 0.00 | 92 | 1002.7 |
| 20260904001034 | 10 | 10 | 3.2 | 6.4 | 0.00 | 0.00 | 0.00 | 92 | 1002.7 |
| 20260904000534 | 10 | 358 | 3.2 | 6.4 | 0.00 | 0.00 | 0.00 | 93 | 1002.8 |
| 20260904000048 | 10 | 347 | 3.2 | 6.4 | 0.00 | 0.00 | 0.00 | 93 | 1002.9 |
| 20260903235534 | 10 | 339 | 3.2 | 6.4 | 0.00 | 0.00 | 0.00 | 93 | 1002.8 |
| 20260903235038 | 10 | 2 | 0.0 | 1.6 | 0.00 | 0.00 | 0.00 | 93 | 1002.9 |
| 20260903234548 | 10 | 0 | 0.0 | 0.0 | 0.00 | 0.00 | 0.00 | 93 | 1002.9 |
| 20260903234031 | 10 | 0 | 0.0 | 0.0 | 0.00 | 0.00 | 0.00 | 93 | 1002.9 |
| 20260903233535 | 10 | 0 | 0.0 | 0.0 | 0.00 | 0.00 | 0.00 | 93 | 1003.0 |
| 20260903233046 | 10 | 0 | 0.0 | 0.0 | 0.00 | 0.00 | 0.00 | 93 | 1003.1 |
| 20260903232530 | 10 | 0 | 0.0 | 0.0 | 0.00 | 0.00 | 0.00 | 92 | 1003.1 |
| 20260903232030 | 10 | 0 | 0.0 | 0.0 | 0.00 | 0.00 | 0.00 | 92 | 1003.0 |
| 20260903231604 | 10 | 0 | 0.0 | 0.0 | 0.00 | 0.00 | 0.00 | 92 | 1003.1 |
| 20260903231034 | 10 | 0 | 0.0 | 0.0 | 0.00 | 0.00 | 0.00 | 92 | 1003.1 |
| 20260903230532 | 10 | 0 | 0.0 | 0.0 | 0.00 | 0.00 | 0.00 | 92 | 1003.2 |
| 20260903230048 | 10 | 0 | 0.0 | 0.0 | 0.00 | 0.00 | 0.00 | 92 | 1003.2 |
| 20260903225534 | 10 | 0 | 0.0 | 0.0 | 0.00 | 0.00 | 0.00 | 92 | 1003.5 |
| 20260903225031 | 10 | 0 | 0.0 | 0.0 | 0.00 | 0.00 | 0.00 | 92 | 1003.3 |
| 20260903224545 | 10 | 0 | 0.0 | 0.0 | 0.00 | 0.00 | 0.00 | 92 | 1003.4 |
| 20260903224034 | 10 | 0 | 0.0 | 0.0 | 0.00 | 0.00 | 0.00 | 92 | 1003.5 |
| 20260903223531 | 10 | 0 | 0.0 | 0.0 | 0.00 | 0.00 | 0.00 | 92 | 1003.4 |
| 20260903223105 | 10 | 0 | 0.0 | 0.0 | 0.00 | 0.00 | 0.00 | 92 | 1003.3 |
| 20260903222530 | 10 | 0 | 0.0 | 0.0 | 0.00 | 0.00 | 0.00 | 91 | 1003.5 |
| 20260903222033 | 10 | 0 | 0.0 | 0.0 | 0.00 | 0.00 | 0.00 | 91 | 1003.5 |
| 20260903221550 | 10 | 0 | 0.0 | 0.0 | 0.00 | 0.00 | 0.00 | 91 | 1003.5 |
| 20260903221033 | 10 | 0 | 0.0 | 0.0 | 0.00 | 0.00 | 0.00 | 91 | 1003.5 |
| 20260903220534 | 10 | 0 | 0.0 | 0.0 | 0.00 | 0.00 | 0.00 | 91 | 1003.5 |
| 20260903215537 | 10 | 0 | 0.0 | 0.0 | 0.00 | 0.00 | 0.00 | 91 | 1003.6 |
| 20260903215030 | 10 | 0 | 0.0 | 0.0 | 0.00 | 0.00 | 0.00 | 91 | 1003.7 |
| 20260903214555 | 10 | 0 | 0.0 | 0.0 | 0.00 | 0.00 | 0.00 | 90 | 1003.7 |
| 20260903214033 | 10 | 0 | 0.0 | 0.0 | 0.00 | 0.00 | 0.00 | 90 | 1003.7 |
| 20260903213532 | 11 | 0 | 0.0 | 0.0 | 0.00 | 0.00 | 0.00 | 90 | 1003.7 |
| 20260903213051 | 10 | 0 | 0.0 | 0.0 | 0.00 | 0.00 | 0.00 | 90 | 1003.7 |
| 20260903212533 | 10 | 0 | 0.0 | 0.0 | 0.00 | 0.00 | 0.00 | 90 | 1003.8 |
| 20260903212035 | 10 | 0 | 0.0 | 0.0 | 0.00 | 0.00 | 0.00 | 89 | 1003.7 |
| 20260903211549 | 10 | 0 | 0.0 | 0.0 | 0.00 | 0.00 | 0.00 | 89 | 1003.8 |
| 20260903211033 | 10 | 0 | 0.0 | 0.0 | 0.00 | 0.00 | 0.00 | 89 | 1003.9 |
| 20260903210538 | 10 | 0 | 0.0 | 0.0 | 0.00 | 0.00 | 0.00 | 88 | 1003.9 |
| 20260903210046 | 11 | 0 | 0.0 | 0.0 | 0.00 | 0.00 | 0.00 | 88 | 1003.8 |
| 20260903205531 | 11 | 0 | 0.0 | 0.0 | 0.00 | 0.00 | 0.00 | 87 | 1003.8 |
| 20260903205031 | 11 | 0 | 0.0 | 0.0 | 0.00 | 0.00 | 0.00 | 87 | 1003.8 |
| 20260903204559 | 11 | 0 | 0.0 | 0.0 | 0.00 | 0.00 | 0.00 | 87 | 1003.9 |
| 20260903204030 | 11 | 0 | 0.0 | 0.0 | 0.00 | 0.00 | 0.00 | 86 | 1004.0 |
| 20260903203533 | 11 | 0 | 0.0 | 0.0 | 0.00 | 0.00 | 0.00 | 86 | 1004.0 |
| 20260903203048 | 11 | 0 | 0.0 | 0.0 | 0.00 | 0.00 | 0.00 | 86 | 1004.0 |
| 20260903202536 | 11 | 0 | 0.0 | 0.0 | 0.00 | 0.00 | 0.00 | 86 | 1004.0 |
| 20260903202034 | 11 | 0 | 0.0 | 0.0 | 0.00 | 0.00 | 0.00 | 85 | 1004.0 |
| 20260903201548 | 11 | 0 | 0.0 | 0.0 | 0.00 | 0.00 | 0.00 | 85 | 1004.0 |
| 20260903201037 | 11 | 0 | 0.0 | 0.0 | 0.00 | 0.00 | 0.00 | 85 | 1004.2 |
| 20260903200531 | 11 | 0 | 0.0 | 0.0 | 0.00 | 0.00 | 0.00 | 85 | 1004.4 |
| 20260903200054 | 11 | 0 | 0.0 | 0.0 | 0.00 | 0.00 | 0.00 | 84 | 1004.5 |
| 20260903195532 | 11 | 0 | 0.0 | 0.0 | 0.00 | 0.00 | 0.00 | 83 | 1004.5 |
| 20260903195034 | 11 | 0 | 0.0 | 0.0 | 0.00 | 0.00 | 0.00 | 83 | 1004.5 |
| 20260903194552 | 11 | 0 | 0.0 | 0.0 | 0.00 | 0.00 | 0.00 | 83 | 1004.5 |
| 20260903194033 | 11 | 0 | 0.0 | 0.0 | 0.00 | 0.00 | 0.00 | 82 | 1004.6 |
| 20260903193531 | 12 | 0 | 0.0 | 1.6 | 0.00 | 0.00 | 0.00 | 82 | 1004.5 |
| 20260903193048 | 12 | 0 | 0.0 | 1.6 | 0.00 | 0.00 | 0.00 | 82 | 1004.5 |
| 20260903192534 | 12 | 0 | 0.0 | 1.6 | 0.00 | 0.00 | 0.00 | 82 | 1004.5 |
| 20260903192033 | 12 | 94 | 0.0 | 1.6 | 0.00 | 0.00 | 0.00 | 82 | 1004.5 |
| 20260903191601 | 12 | 94 | 0.0 | 3.2 | 0.00 | 0.00 | 0.00 | 81 | 1004.5 |
| 20260903191032 | 12 | 0 | 0.0 | 3.2 | 0.00 | 0.00 | 0.00 | 81 | 1004.6 |
| 20260903190532 | 12 | 158 | 0.0 | 3.2 | 0.00 | 0.00 | 0.00 | 81 | 1004.4 |
| 20260903190053 | 12 | 160 | 0.0 | 3.2 | 0.00 | 0.00 | 0.00 | 80 | 1004.5 |
| 20260903185532 | 12 | 0 | 0.0 | 1.6 | 0.00 | 0.00 | 0.00 | 80 | 1004.5 |
| 20260903185032 | 12 | 158 | 0.0 | 1.6 | 0.00 | 0.00 | 0.00 | 79 | 1004.6 |
| 20260903184552 | 12 | 0 | 0.0 | 1.6 | 0.00 | 0.00 | 0.00 | 79 | 1004.7 |
| 20260903184032 | 12 | 0 | 0.0 | 1.6 | 0.00 | 0.00 | 0.00 | 78 | 1004.8 |
| 20260903183534 | 12 | 0 | 0.0 | 1.6 | 0.00 | 0.00 | 0.00 | 78 | 1004.8 |
| 20260903183108 | 12 | 91 | 0.0 | 1.6 | 0.00 | 0.00 | 0.00 | 77 | 1004.8 |
| 20260903182532 | 12 | 0 | 0.0 | 0.0 | 0.00 | 0.00 | 0.00 | 77 | 1004.8 |
| 20260903182033 | 12 | 0 | 0.0 | 0.0 | 0.00 | 0.00 | 0.00 | 76 | 1004.8 |
| 20260903181547 | 12 | 0 | 0.0 | 0.0 | 0.00 | 0.00 | 0.00 | 74 | 1004.9 |
| 20260903181031 | 12 | 0 | 0.0 | 1.6 | 0.00 | 0.00 | 0.00 | 74 | 1004.8 |
| 20260903180532 | 12 | 0 | 0.0 | 3.2 | 0.00 | 0.00 | 0.00 | 73 | 1004.9 |
| 20260903180054 | 12 | 0 | 0.0 | 3.2 | 0.00 | 0.00 | 0.00 | 72 | 1004.9 |
| 20260903175532 | 12 | 0 | 0.0 | 3.2 | 0.00 | 0.00 | 0.00 | 71 | 1005.0 |
| 20260903175034 | 13 | 160 | 0.0 | 3.2 | 0.00 | 0.00 | 0.00 | 70 | 1005.0 |
| 20260903174548 | 13 | 147 | 1.6 | 3.2 | 0.00 | 0.00 | 0.00 | 70 | 1005.0 |
| 20260903174032 | 13 | 176 | 0.0 | 3.2 | 0.00 | 0.00 | 0.00 | 70 | 1004.9 |
| 20260903173531 | 13 | 161 | 0.0 | 1.6 | 0.00 | 0.00 | 0.00 | 69 | 1004.9 |
| 20260903173107 | 13 | 0 | 0.0 | 1.6 | 0.00 | 0.00 | 0.00 | 68 | 1004.9 |
| 20260903172532 | 13 | 0 | 0.0 | 3.2 | 0.00 | 0.00 | 0.00 | 68 | 1004.9 |
| 20260903172031 | 13 | 0 | 0.0 | 6.4 | 0.00 | 0.00 | 0.00 | 66 | 1004.9 |
| 20260903171600 | 13 | 193 | 1.6 | 6.4 | 0.00 | 0.00 | 0.00 | 66 | 1004.9 |
| 20260903171032 | 13 | 161 | 1.6 | 6.4 | 0.00 | 0.00 | 0.00 | 65 | 1004.9 |
| 20260903170533 | 13 | 198 | 0.0 | 3.2 | 0.00 | 0.00 | 0.00 | 64 | 1004.9 |
| 20260903170048 | 13 | 0 | 0.0 | 3.2 | 0.00 | 0.00 | 0.00 | 64 | 1004.9 |
| 20260903165532 | 13 | 186 | 0.0 | 6.4 | 0.00 | 0.00 | 0.00 | 64 | 1005.0 |
| 20260903165033 | 13 | 0 | 0.0 | 6.4 | 0.00 | 0.00 | 0.00 | 63 | 1005.1 |
| 20260903164557 | 13 | 122 | 1.6 | 6.4 | 0.00 | 0.00 | 0.00 | 63 | 1005.1 |
| 20260903164032 | 13 | 209 | 1.6 | 6.4 | 0.00 | 0.00 | 0.00 | 63 | 1005.2 |
| 20260903163531 | 13 | 173 | 3.2 | 9.7 | 0.00 | 0.00 | 0.00 | 63 | 1005.2 |
| 20260903163052 | 14 | 153 | 0.0 | 9.7 | 0.00 | 0.00 | 0.00 | 62 | 1005.2 |
| 20260903162532 | 14 | 157 | 3.2 | 9.7 | 0.00 | 0.00 | 0.00 | 62 | 1005.2 |
| 20260903162031 | 14 | 164 | 1.6 | 9.7 | 0.00 | 0.00 | 0.00 | 62 | 1005.2 |
| 20260903161606 | 14 | 138 | 3.2 | 9.7 | 0.00 | 0.00 | 0.00 | 62 | 1005.3 |
| 20260903161034 | 14 | 155 | 3.2 | 8.0 | 0.00 | 0.00 | 0.00 | 61 | 1005.4 |
| 20260903160533 | 14 | 155 | 3.2 | 12.9 | 0.00 | 0.00 | 0.00 | 62 | 1005.5 |
| 20260903160055 | 14 | 160 | 6.4 | 12.9 | 0.00 | 0.00 | 0.00 | 61 | 1005.3 |
| 20260903155536 | 14 | 211 | 6.4 | 12.9 | 0.00 | 0.00 | 0.00 | 61 | 1005.4 |
| 20260903155031 | 15 | 150 | 3.2 | 11.3 | 0.00 | 0.00 | 0.00 | 62 | 1005.5 |
| 20260903154555 | 15 | 176 | 3.2 | 11.3 | 0.00 | 0.00 | 0.00 | 61 | 1005.5 |
| 20260903154032 | 15 | 152 | 6.4 | 17.7 | 0.00 | 0.00 | 0.00 | 60 | 1005.6 |
| 20260903153530 | 15 | 167 | 8.0 | 17.7 | 0.00 | 0.00 | 0.00 | 59 | 1005.6 |
| 20260903153059 | 15 | 169 | 9.7 | 14.5 | 0.00 | 0.00 | 0.00 | 59 | 1005.7 |
| 20260903152532 | 15 | 165 | 6.4 | 11.3 | 0.00 | 0.00 | 0.00 | 60 | 1005.7 |
| 20260903152032 | 15 | 148 | 4.8 | 11.3 | 0.00 | 0.00 | 0.00 | 60 | 1005.6 |
| 20260903151547 | 15 | 148 | 1.6 | 14.5 | 0.00 | 0.00 | 0.00 | 60 | 1005.5 |
| 20260903151034 | 15 | 153 | 4.8 | 14.5 | 0.00 | 0.00 | 0.00 | 60 | 1005.6 |
| 20260903150534 | 15 | 122 | 3.2 | 14.5 | 0.00 | 0.00 | 0.00 | 61 | 1005.7 |
| 20260903150054 | 15 | 160 | 4.8 | 14.5 | 0.00 | 0.00 | 0.00 | 59 | 1005.7 |
| 20260903145534 | 15 | 150 | 6.4 | 16.1 | 0.00 | 0.00 | 0.00 | 59 | 1005.7 |
| 20260903145033 | 16 | 122 | 4.8 | 16.1 | 0.00 | 0.00 | 0.00 | 59 | 1005.8 |
| 20260903144550 | 16 | 124 | 3.2 | 12.9 | 0.00 | 0.00 | 0.00 | 59 | 1005.8 |
| 20260903144032 | 16 | 170 | 6.4 | 16.1 | 0.00 | 0.00 | 0.00 | 58 | 1005.6 |
| 20260903143532 | 16 | 80 | 6.4 | 17.7 | 0.00 | 0.00 | 0.00 | 59 | 1005.6 |
| 20260903143046 | 16 | 91 | 9.7 | 17.7 | 0.00 | 0.00 | 0.00 | 57 | 1005.7 |
| 20260903142536 | 16 | 97 | 9.7 | 16.1 | 0.00 | 0.00 | 0.00 | 57 | 1005.8 |
| 20260903142032 | 16 | 145 | 6.4 | 14.5 | 0.00 | 0.00 | 0.00 | 57 | 1005.8 |
| 20260903141546 | 16 | 221 | 4.8 | 16.1 | 0.00 | 0.00 | 0.00 | 56 | 1005.7 |
| 20260903141031 | 16 | 69 | 4.8 | 16.1 | 0.00 | 0.00 | 0.00 | 54 | 1005.6 |
| 20260903140534 | 17 | 72 | 8.0 | 16.1 | 0.00 | 0.00 | 0.00 | 54 | 1005.6 |
| 20260903140047 | 17 | 155 | 3.2 | 11.3 | 0.00 | 0.00 | 0.00 | 54 | 1005.7 |
| 20260903135533 | 17 | 167 | 4.8 | 11.3 | 0.00 | 0.00 | 0.00 | 54 | 1005.6 |
| 20260903135031 | 18 | 187 | 4.8 | 14.5 | 0.00 | 0.00 | 0.00 | 52 | 1005.8 |
| 20260903134604 | 18 | 169 | 6.4 | 16.1 | 0.00 | 0.00 | 0.00 | 52 | 1005.6 |
| 20260903134030 | 18 | 101 | 6.4 | 16.1 | 0.00 | 0.00 | 0.00 | 49 | 1005.7 |
| 20260903133532 | 18 | 208 | 9.7 | 16.1 | 0.00 | 0.00 | 0.00 | 51 | 1005.7 |
| 20260903133051 | 18 | 68 | 6.4 | 14.5 | 0.00 | 0.00 | 0.00 | 49 | 1005.7 |
| 20260903132532 | 18 | 92 | 3.2 | 12.9 | 0.00 | 0.00 | 0.00 | 49 | 1005.8 |
| 20260903132031 | 18 | 134 | 4.8 | 11.3 | 0.00 | 0.00 | 0.00 | 51 | 1005.9 |
| 20260903131548 | 18 | 193 | 3.2 | 9.7 | 0.00 | 0.00 | 0.00 | 51 | 1005.9 |
| 20260903131032 | 18 | 117 | 4.8 | 17.7 | 0.00 | 0.00 | 0.00 | 50 | 1006.0 |
| 20260903130533 | 18 | 165 | 3.2 | 17.7 | 0.00 | 0.00 | 0.00 | 50 | 1006.0 |
| 20260903130047 | 18 | 122 | 4.8 | 14.5 | 0.00 | 0.00 | 0.00 | 49 | 1005.9 |
| 20260903125531 | 18 | 175 | 6.4 | 16.1 | 0.00 | 0.00 | 0.00 | 48 | 1006.0 |
| 20260903125032 | 18 | 112 | 6.4 | 16.1 | 0.00 | 0.00 | 0.00 | 49 | 1006.1 |
| 20260903124559 | 18 | 174 | 9.7 | 16.1 | 0.00 | 0.00 | 0.00 | 48 | 1006.2 |
| 20260903124031 | 18 | 180 | 3.2 | 11.3 | 0.00 | 0.00 | 0.00 | 50 | 1006.1 |
| 20260903123532 | 18 | 148 | 4.8 | 14.5 | 0.00 | 0.00 | 0.00 | 51 | 1006.1 |
| 20260903123048 | 17 | 140 | 4.8 | 14.5 | 0.00 | 0.00 | 0.00 | 50 | 1006.2 |
| 20260903122535 | 17 | 162 | 8.0 | 14.5 | 0.00 | 0.00 | 0.00 | 50 | 1006.3 |
| 20260903122032 | 17 | 124 | 4.8 | 12.9 | 0.00 | 0.00 | 0.00 | 51 | 1006.4 |
| 20260903121552 | 17 | 123 | 8.0 | 12.9 | 0.00 | 0.00 | 0.00 | 49 | 1006.5 |
| 20260903121035 | 17 | 155 | 4.8 | 12.9 | 0.00 | 0.00 | 0.00 | 51 | 1006.6 |
| 20260903120531 | 17 | 185 | 4.8 | 12.9 | 0.00 | 0.00 | 0.00 | 50 | 1006.5 |
| 20260903120056 | 17 | 117 | 3.2 | 8.0 | 0.00 | 0.00 | 0.00 | 49 | 1006.5 |
| 20260903115537 | 17 | 240 | 1.6 | 11.3 | 0.00 | 0.00 | 0.00 | 47 | 1006.5 |
| 20260903115031 | 17 | 96 | 3.2 | 11.3 | 0.00 | 0.00 | 0.00 | 49 | 1006.6 |
| 20260903114549 | 17 | 153 | 4.8 | 11.3 | 0.00 | 0.00 | 0.00 | 48 | 1006.7 |
| 20260903114030 | 17 | 120 | 6.4 | 11.3 | 0.00 | 0.00 | 0.00 | 48 | 1006.5 |
| 20260903113533 | 18 | 171 | 4.8 | 12.9 | 0.00 | 0.00 | 0.00 | 46 | 1006.6 |
| 20260903113047 | 17 | 113 | 4.8 | 14.5 | 0.00 | 0.00 | 0.00 | 51 | 1006.6 |
| 20260903112532 | 17 | 0 | 1.6 | 14.5 | 0.00 | 0.00 | 0.00 | 49 | 1006.6 |
| 20260903112033 | 17 | 218 | 6.4 | 14.5 | 0.00 | 0.00 | 0.00 | 49 | 1006.7 |
| 20260903111545 | 17 | 117 | 1.6 | 12.9 | 0.00 | 0.00 | 0.00 | 50 | 1006.8 |
| 20260903111032 | 17 | 184 | 6.4 | 12.9 | 0.00 | 0.00 | 0.00 | 50 | 1006.7 |
| 20260903110532 | 17 | 151 | 4.8 | 12.9 | 0.00 | 0.00 | 0.00 | 51 | 1006.8 |
| 20260903110050 | 17 | 216 | 4.8 | 12.9 | 0.00 | 0.00 | 0.00 | 52 | 1006.8 |
| 20260903105532 | 17 | 134 | 3.2 | 9.7 | 0.00 | 0.00 | 0.00 | 51 | 1006.9 |
| 20260903105033 | 16 | 128 | 4.8 | 11.3 | 0.00 | 0.00 | 0.00 | 52 | 1006.9 |
| 20260903104547 | 16 | 176 | 3.2 | 11.3 | 0.00 | 0.00 | 0.00 | 51 | 1007.0 |
| 20260903104034 | 17 | 136 | 6.4 | 11.3 | 0.00 | 0.00 | 0.00 | 51 | 1007.0 |
| 20260903103535 | 17 | 194 | 4.8 | 14.5 | 0.00 | 0.00 | 0.00 | 53 | 1007.0 |
| 20260903103048 | 17 | 223 | 6.4 | 14.5 | 0.00 | 0.00 | 0.00 | 51 | 1007.0 |
| 20260903102530 | 17 | 196 | 8.0 | 14.5 | 0.00 | 0.00 | 0.00 | 51 | 1007.0 |
| 20260903102032 | 17 | 170 | 3.2 | 6.4 | 0.00 | 0.00 | 0.00 | 52 | 1007.0 |
| 20260903101547 | 17 | 85 | 3.2 | 6.4 | 0.00 | 0.00 | 0.00 | 51 | 1007.1 |
| 20260903101031 | 16 | 114 | 1.6 | 4.8 | 0.00 | 0.00 | 0.00 | 57 | 1007.1 |
| 20260903100532 | 16 | 119 | 1.6 | 3.2 | 0.00 | 0.00 | 0.00 | 55 | 1007.2 |
| 20260903100046 | 16 | 115 | 1.6 | 4.8 | 0.00 | 0.00 | 0.00 | 53 | 1007.3 |
| 20260903095535 | 16 | 103 | 1.6 | 4.8 | 0.00 | 0.00 | 0.00 | 54 | 1007.2 |
| 20260903095031 | 16 | 126 | 1.6 | 6.4 | 0.00 | 0.00 | 0.00 | 55 | 1007.3 |
| 20260903094546 | 16 | 107 | 3.2 | 6.4 | 0.00 | 0.00 | 0.00 | 54 | 1007.3 |
| 20260903094033 | 16 | 146 | 3.2 | 6.4 | 0.00 | 0.00 | 0.00 | 55 | 1007.3 |
| 20260903093532 | 16 | 118 | 3.2 | 8.0 | 0.00 | 0.00 | 0.00 | 54 | 1007.3 |
| 20260903093051 | 16 | 150 | 0.0 | 8.0 | 0.00 | 0.00 | 0.00 | 56 | 1007.4 |
| 20260903092532 | 16 | 228 | 4.8 | 8.0 | 0.00 | 0.00 | 0.00 | 56 | 1007.4 |
| 20260903092031 | 16 | 232 | 1.6 | 4.8 | 0.00 | 0.00 | 0.00 | 58 | 1007.5 |
| 20260903091603 | 15 | 224 | 1.6 | 4.8 | 0.00 | 0.00 | 0.00 | 57 | 1007.5 |
| 20260903091031 | 15 | 242 | 1.6 | 4.8 | 0.00 | 0.00 | 0.00 | 58 | 1007.5 |
| 20260903090531 | 15 | 300 | 1.6 | 8.0 | 0.00 | 0.00 | 0.00 | 60 | 1007.7 |
| 20260903090053 | 15 | 335 | 0.0 | 8.0 | 0.00 | 0.00 | 0.00 | 59 | 1007.7 |
| 20260903085530 | 15 | 153 | 4.8 | 8.0 | 0.00 | 0.00 | 0.00 | 60 | 1007.7 |
| 20260903085032 | 14 | 5 | 1.6 | 6.4 | 0.00 | 0.00 | 0.00 | 62 | 1007.7 |
| 20260903084549 | 14 | 113 | 1.6 | 6.4 | 0.00 | 0.00 | 0.00 | 64 | 1007.7 |